Home   Weather   Whistler   Past weeks
Flag for Canada

Past Weather in Whistler, British Columbia, Canada — Yesterday and Last 2 Weeks

Now
46 °F

Cool.


Feels Like: 46 °F
Forecast: 46 / 40 °F
Wind: 2 mph from North

Location: Squamish Airport

Current Time: Oct 16, 2019 at 8:29:36 am

Latest Report: Oct 16, 2019 at 8:00 am


Visibility: N/A

Pressure: 29.75 "Hg (27.40 "Hg at 674m altitude)

Humidity: 97%

Dew Point: 45 °F

Location of WhistlerLocation

Past Weather in Whistler — Graph

°F

Whistler Temperature Yesterday

Maximum temperature yesterday: 50 °F (at 12:00 pm)
Minimum temperature yesterday: 46 °F (at 9:00 pm)
Average temperature yesterday: 48 °F

High & Low Weather Summary for the Past Weeks

 TemperatureHumidityPressure
High61 °F (Oct 11, 2:00 pm)100% (Oct 2, 7:00 am)30.51 "Hg (Oct 2, 7:00 am)
Low29 °F (Oct 10, 8:00 am)19% (Oct 9, 3:00 pm)29.65 "Hg (Oct 7, 6:00 pm)
Average47 °F80%30.10 "Hg
* Reported Oct 1 7:00 am — Oct 16 7:00 am, Whistler. Weather by CustomWeather, © 2019

Note: Actual official high and low records may vary slightly from our data, if they occured in-between our weather recording intervals... More about our weather records

Advertising

Whistler Weather History for the Previous 24 Hours

Scroll right to see more
 ConditionsComfort  
Time TempWeatherWind HumidityBarometerVisibility
7:00 am
Wed, Oct 16
46 °FCool.2 mph97%29.76 "HgN/A
6:00 am46 °FCool.3 mph97%29.78 "HgN/A
5:00 am46 °FCool.2 mph97%29.80 "HgN/A
4:00 am46 °FCool.1 mph97%29.83 "HgN/A
3:00 am46 °FCool.2 mph97%29.83 "HgN/A
2:00 am46 °FCool.2 mph97%29.85 "HgN/A
1:00 am46 °FCool.2 mph97%29.87 "HgN/A
12:00 am46 °FCool.3 mph97%29.89 "HgN/A
11:00 pm
Tue, Oct 15
46 °FCool.2 mph97%29.91 "HgN/A
10:00 pm46 °FCool.2 mph97%29.93 "HgN/A
9:00 pm46 °FCool.2 mph97%29.94 "HgN/A
8:00 pm46 °FCool.2 mph97%29.95 "HgN/A
7:00 pm47 °FCool.2 mph95%29.95 "HgN/A
6:00 pm48 °FCool.1 mph96%29.96 "HgN/A
5:00 pm48 °FCool.2 mph90%29.96 "HgN/A
4:00 pm49 °FCool.No wind88%29.98 "HgN/A
3:00 pm49 °FCool.3 mph94%29.98 "HgN/A
2:00 pm49 °FCool.5 mph94%29.99 "HgN/A
1:00 pm47 °FCool.1 mph100%29.99 "HgN/A
12:00 pm50 °FCool.1 mph85%29.96 "HgN/A
11:00 am50 °FCool.1 mph83%29.95 "HgN/A
10:00 am50 °FCool.1 mph84%29.94 "HgN/A
9:00 am48 °FCool.1 mph94%29.94 "HgN/A
8:00 am46 °FCool.1 mph96%29.95 "HgN/A
Weather by CustomWeather, © 2019

See weather overview